• In Hungary
  • List of Countries
  • For 7 days
  • Water Temperature
  • Satellite Maps
  • Weather Map
  • News
  • Weather Widgets
  • user-avatar
    Login

    Hourly Weather Kunow

    Today, 21 January, Sunday

    Time Temperature Precipitation Wind Pressure Humidity
    00:00 -4°C° 0 mm 2 mps 717 mmHg 90%
    01:00 -2°C° 0 mm 1 mps 717 mmHg 91%
    02:00 -2°C° 0.1 mm 1 mps 716 mmHg 90%
    03:00 -2°C° 0.1 mm 1 mps 716 mmHg 90%
    04:00 -3°C° 0.1 mm 2 mps 716 mmHg 90%
    05:00 -3°C° 0.1 mm 2 mps 716 mmHg 90%
    06:00 -3°C° 0.1 mm 2 mps 716 mmHg 91%
    07:00 -3°C° 0.1 mm 2 mps 716 mmHg 91%
    08:00 -3°C° 0.2 mm 2 mps 716 mmHg 89%
    09:00 -2°C° 0.2 mm 2 mps 716 mmHg 87%
    10:00 -2°C° 0.2 mm 2 mps 717 mmHg 85%
    11:00 -2°C° 0.3 mm 2 mps 717 mmHg 85%
    12:00 -1°C° 0.3 mm 2 mps 717 mmHg 85%
    13:00 +1°C° 0.3 mm 1 mps 717 mmHg 84%
    14:00 -1°C° 0.3 mm 2 mps 718 mmHg 88%
    15:00 -2°C° 0.3 mm 2 mps 718 mmHg 91%
    16:00 -2°C° 0.3 mm 2 mps 718 mmHg 95%
    17:00 -2°C° 0.5 mm 2 mps 719 mmHg 95%
    18:00 -2°C° 0.5 mm 3 mps 719 mmHg 95%
    19:00 -4°C° 0.5 mm 3 mps 720 mmHg 95%
    20:00 -4°C° 0.6 mm 4 mps 720 mmHg 94%
    21:00 -4°C° 0.6 mm 4 mps 721 mmHg 94%
    22:00 -4°C° 0.6 mm 4 mps 722 mmHg 94%
    23:00 -4°C° 0.4 mm 4 mps 722 mmHg 93%

    Tomorrow, 22 January, Monday

    Time Temperature Precipitation Wind Pressure Humidity
    00:00 -5°C° 0.4 mm 4 mps 722 mmHg 93%
    01:00 -5°C° 0.4 mm 4 mps 723 mmHg 93%
    02:00 -5°C° 0.2 mm 4 mps 723 mmHg 93%
    03:00 -5°C° 0.2 mm 4 mps 723 mmHg 93%
    04:00 -5°C° 0.2 mm 3 mps 723 mmHg 93%
    05:00 -6°C° 0.1 mm 3 mps 723 mmHg 94%
    06:00 -6°C° 0.1 mm 3 mps 724 mmHg 94%
    07:00 -5°C° 0.1 mm 2 mps 724 mmHg 94%
    08:00 -5°C° 0 mm 2 mps 724 mmHg 92%
    09:00 -5°C° 0 mm 2 mps 724 mmHg 90%
    10:00 -5°C° 0 mm 2 mps 725 mmHg 88%
    11:00 -4°C° 0 mm 2 mps 725 mmHg 86%
    12:00 -4°C° 0 mm 2 mps 724 mmHg 84%
    13:00 -4°C° 0 mm 2 mps 724 mmHg 82%
    14:00 -4°C° 0 mm 2 mps 724 mmHg 84%
    15:00 -2°C° 0 mm 1 mps 725 mmHg 86%
    16:00 -3°C° 0 mm 1 mps 725 mmHg 88%
    17:00 -3°C° 0 mm 1 mps 725 mmHg 89%
    18:00 -4°C° 0 mm 1 mps 725 mmHg 90%
    19:00 -4°C° 0 mm 1 mps 725 mmHg 91%
    20:00 -4°C° 0 mm 1 mps 726 mmHg 91%
    21:00 -6°C° 0 mm 1 mps 726 mmHg 92%
    22:00 -6°C° 0 mm 1 mps 726 mmHg 92%
    23:00 -6°C° 0 mm 1 mps 726 mmHg 92%

    Day after tomorrow, 23 January, Tuesday

    Time Temperature Precipitation Wind Pressure Humidity
    00:00 -7°C° 0 mm 1 mps 727 mmHg 91%
    01:00 -7°C° 0 mm 1 mps 727 mmHg 91%
    02:00 -7°C° 0 mm 1 mps 727 mmHg 90%
    03:00 -7°C° 0 mm 1 mps 727 mmHg 89%
    04:00 -7°C° 0 mm 1 mps 727 mmHg 88%
    05:00 -7°C° 0 mm 1 mps 727 mmHg 87%
    06:00 -7°C° 0 mm 1 mps 728 mmHg 86%
    07:00 -7°C° 0 mm 1 mps 728 mmHg 85%
    08:00 -4°C° 0 mm 1 mps 729 mmHg 82%
    09:00 -3°C° 0 mm 1 mps 729 mmHg 79%
    10:00 -2°C° 0 mm 1 mps 730 mmHg 76%
    11:00 -1°C° 0 mm 1 mps 730 mmHg 74%
    12:00 0°C° 0 mm 1 mps 730 mmHg 73%
    13:00 +1°C° 0 mm 1 mps 730 mmHg 71%
    14:00 0°C° 0 mm 1 mps 730 mmHg 76%
    15:00 0°C° 0 mm 1 mps 731 mmHg 80%
    16:00 -1°C° 0 mm 1 mps 731 mmHg 84%
    17:00 -1°C° 0 mm 1 mps 731 mmHg 86%
    18:00 -1°C° 0 mm 1 mps 732 mmHg 87%
    19:00 -1°C° 0 mm 1 mps 732 mmHg 88%
    20:00 -1°C° 0 mm 1 mps 732 mmHg 89%
    21:00 -2°C° 0 mm 1 mps 733 mmHg 89%
    22:00 -2°C° 0 mm 1 mps 733 mmHg 90%
    23:00 -4°C° 0 mm 2 mps 733 mmHg 90%

    24 January, Wednesday

    Time Temperature Precipitation Wind Pressure Humidity
    00:00 -4°C° 0 mm 2 mps 733 mmHg 90%
    01:00 -5°C° 0 mm 2 mps 733 mmHg 90%
    02:00 -5°C° 0 mm 2 mps 733 mmHg 90%
    03:00 -5°C° 0 mm 2 mps 733 mmHg 91%
    04:00 -5°C° 0 mm 2 mps 733 mmHg 91%
    05:00 -5°C° 0 mm 2 mps 733 mmHg 91%
    06:00 -5°C° 0 mm 2 mps 734 mmHg 91%
    07:00 -6°C° 0 mm 3 mps 734 mmHg 91%
    08:00 -5°C° 0 mm 3 mps 734 mmHg 89%
    09:00 -4°C° 0 mm 3 mps 734 mmHg 87%
    10:00 -2°C° 0 mm 3 mps 734 mmHg 85%
    11:00 -1°C° 0 mm 3 mps 734 mmHg 85%
    12:00 0°C° 0 mm 3 mps 734 mmHg 85%
    13:00 0°C° 0 mm 3 mps 734 mmHg 85%
    14:00 0°C° 0 mm 3 mps 734 mmHg 86%
    15:00 -1°C° 0 mm 3 mps 734 mmHg 87%
    16:00 -1°C° 0 mm 3 mps 733 mmHg 88%
    17:00 -2°C° 0 mm 3 mps 733 mmHg 89%
    18:00 -2°C° 0 mm 3 mps 733 mmHg 90%
    19:00 -4°C° 0 mm 3 mps 733 mmHg 90%
    20:00 -4°C° 0 mm 3 mps 733 mmHg 90%
    21:00 -4°C° 0 mm 3 mps 733 mmHg 90%
    22:00 -4°C° 0 mm 3 mps 733 mmHg 90%
    23:00 -4°C° 0 mm 3 mps 733 mmHg 90%

    25 January, Thursday

    Time Temperature Precipitation Wind Pressure Humidity
    00:00 -4°C° 0 mm 3 mps 733 mmHg 90%
    01:00 -4°C° 0 mm 3 mps 732 mmHg 90%
    02:00 -4°C° 0 mm 3 mps 732 mmHg 90%
    03:00 -4°C° 0 mm 3 mps 732 mmHg 91%
    04:00 -4°C° 0 mm 3 mps 731 mmHg 91%
    05:00 -4°C° 0 mm 3 mps 731 mmHg 90%
    06:00 -4°C° 0 mm 3 mps 731 mmHg 90%
    07:00 -4°C° 0 mm 3 mps 731 mmHg 89%
    08:00 -2°C° 0 mm 3 mps 731 mmHg 88%
    09:00 -1°C° 0 mm 3 mps 731 mmHg 86%
    10:00 0°C° 0 mm 3 mps 731 mmHg 85%
    11:00 0°C° 0 mm 3 mps 730 mmHg 85%
    12:00 +1°C° 0 mm 3 mps 730 mmHg 85%
    13:00 +2°C° 0 mm 3 mps 730 mmHg 84%
    14:00 +1°C° 0 mm 3 mps 729 mmHg 85%
    15:00 0°C° 0 mm 3 mps 729 mmHg 86%
    16:00 +1°C° 0 mm 2 mps 729 mmHg 87%
    17:00 -1°C° 0 mm 2 mps 729 mmHg 87%
    18:00 -2°C° 0 mm 2 mps 729 mmHg 87%
    19:00 -2°C° 0 mm 2 mps 729 mmHg 87%
    20:00 -2°C° 0 mm 2 mps 728 mmHg 86%
    21:00 -2°C° 0 mm 2 mps 728 mmHg 84%
    22:00 -3°C° 0 mm 2 mps 728 mmHg 83%
    23:00 -3°C° 0 mm 2 mps 728 mmHg 82%

    26 January, Friday

    Time Temperature Precipitation Wind Pressure Humidity
    00:00 -3°C° 0 mm 2 mps 728 mmHg 81%
    01:00 -3°C° 0 mm 2 mps 728 mmHg 81%
    02:00 -3°C° 0 mm 2 mps 727 mmHg 80%
    03:00 -3°C° 0 mm 2 mps 727 mmHg 79%
    04:00 -3°C° 0 mm 2 mps 727 mmHg 79%
    05:00 -3°C° 0 mm 2 mps 727 mmHg 79%
    06:00 -3°C° 0 mm 2 mps 727 mmHg 78%
    07:00 -3°C° 0 mm 2 mps 727 mmHg 78%
    08:00 -2°C° 0 mm 2 mps 727 mmHg 76%
    09:00 -1°C° 0 mm 3 mps 727 mmHg 75%
    10:00 0°C° 0 mm 3 mps 727 mmHg 73%
    11:00 +1°C° 0 mm 3 mps 727 mmHg 72%
    12:00 +1°C° 0 mm 3 mps 727 mmHg 72%
    13:00 +2°C° 0 mm 3 mps 727 mmHg 72%
    14:00 +1°C° 0 mm 3 mps 727 mmHg 73%
    15:00 +1°C° 0 mm 3 mps 727 mmHg 75%
    16:00 0°C° 0 mm 3 mps 727 mmHg 77%
    17:00 0°C° 0 mm 3 mps 727 mmHg 78%
    18:00 -1°C° 0 mm 3 mps 727 mmHg 79%
    19:00 -1°C° 0 mm 3 mps 727 mmHg 80%
    20:00 -1°C° 0 mm 2 mps 728 mmHg 81%
    21:00 -1°C° 0 mm 2 mps 728 mmHg 82%
    22:00 -1°C° 0 mm 2 mps 728 mmHg 83%
    23:00 -2°C° 0 mm 2 mps 728 mmHg 84%
    Show more